Sitka, Alaska, United States (99835)
Lat: 57.05N, Lon: 135.33W
Wx Zone: AKZ023
Local Info
Past Weather Observations for Wednesday, September 21, 2016

NOTE: This archive is for the closest National Weather Service station to Sitka. Information may differ from the station used for current weather conditions.

Click here for Long-term Archive

Time Weather Temperature Dewpoint Humidity Pressure Winds Precip Visibility
23:53
Mostly Cloudy
57°F / 14°C 39°F / 4°C 51% 29.68 in
(1005 mb)
ESE 21.9 mph
(ESE 35 kph)
- 10SM
22:53
Mostly Cloudy
55°F / 13°C 41°F / 5°C 59% 29.74 in
(1007 mb)
SE 13.8 mph
(SE 22 kph)
- 10SM
21:53
Clear
55°F / 13°C 43°F / 6°C 63% 29.77 in
(1008 mb)
SE 15 mph
(SE 24 kph)
- 10SM
20:53
Clear
55°F / 13°C 41°F / 5°C 59% 29.8 in
(1009 mb)
SE 12.7 mph
(SE 20 kph)
- 10SM
19:53
Partly Cloudy
55°F / 13°C 43°F / 6°C 63% 29.83 in
(1010 mb)
SE 9.2 mph
(SE 15 kph)
- 10SM
18:53
Mostly Cloudy
55°F / 13°C 41°F / 5°C 59% 29.89 in
(1012 mb)
SE 13.8 mph
(SE 22 kph)
- 10SM
17:53
Mostly Cloudy
55°F / 13°C 43°F / 6°C 63% 29.92 in
(1013 mb)
SE 11.5 mph
(SE 19 kph)
0.00 in
(0.00 mm)
10SM
16:53
Mostly Cloudy
57°F / 14°C 43°F / 6°C 59% 29.95 in
(1014 mb)
SSE 10.4 mph
(SSE 17 kph)
- 10SM
15:53
Overcast
57°F / 14°C 43°F / 6°C 59% 30.01 in
(1016 mb)
S 13.8 mph
(S 22 kph)
- 10SM
14:53
Mostly Cloudy
57°F / 14°C 43°F / 6°C 59% 30.04 in
(1017 mb)
SSE 19.6 mph
(SSE 32 kph)
- 10SM
13:53
Partly Cloudy
57°F / 14°C 43°F / 6°C 59% 30.06 in
(1018 mb)
SSE 15 mph
(SSE 24 kph)
- 10SM
12:53
Mostly Cloudy
57°F / 14°C 45°F / 7°C 63% 30.06 in
(1018 mb)
S 12.7 mph
(S 20 kph)
- 10SM
11:53
Overcast
57°F / 14°C 48°F / 9°C 72% 30.09 in
(1019 mb)
S 11.5 mph
(S 19 kph)
- 10SM
10:53
Overcast
57°F / 14°C 43°F / 6°C 59% 30.12 in
(1020 mb)
SE 8.1 mph
(SE 13 kph)
- 10SM
09:53
Partly Cloudy
55°F / 13°C 45°F / 7°C 67% 30.12 in
(1020 mb)
S 5.8 mph
(S 9 kph)
- 10SM
08:53
Partly Cloudy
55°F / 13°C 46°F / 8°C 72% 30.15 in
(1021 mb)
SE 5.8 mph
(SE 9 kph)
- 10SM
07:53
Partly Cloudy
54°F / 12°C 45°F / 7°C 72% 30.15 in
(1021 mb)
E 8.1 mph
(E 13 kph)
- 10SM
06:53
Mostly Cloudy
50°F / 10°C 45°F / 7°C 82% 30.18 in
(1022 mb)
ESE 6.9 mph
(ESE 11 kph)
- 10SM
05:53
Partly Cloudy
48°F / 9°C 45°F / 7°C 87% 30.18 in
(1022 mb)
E 8.1 mph
(E 13 kph)
- 10SM
04:53
Partly Cloudy
50°F / 10°C 46°F / 8°C 88% 30.18 in
(1022 mb)
SSE 6.9 mph
(SSE 11 kph)
- 10SM
03:53
Clear
46°F / 8°C 45°F / 7°C 93% 30.21 in
(1023 mb)
E 9.2 mph
(E 15 kph)
- 10SM
02:53
Clear
52°F / 11°C 46°F / 8°C 82% 30.21 in
(1023 mb)
SE 5.8 mph
(SE 9 kph)
- 10SM
01:53
Clear
52°F / 11°C 46°F / 8°C 82% 30.21 in
(1023 mb)
ESE 6.9 mph
(ESE 11 kph)
- 10SM
00:53
Clear
50°F / 10°C 46°F / 8°C 88% 30.21 in
(1023 mb)
E 5.8 mph
(E 9 kph)
- 10SM
Time Weather Temperature Dewpoint Humidity Pressure Winds Precip Visibility


Weather for websites

WeatherForYou.com, LLC is not responsible for any damages or problems caused by this service. Current weather conditions are obtained from the closest station including government and personal stations which may have varying degrees of accuracy. Weather forecasts are derived from the NOAA NDFD. Like all things, this site belongs to Jesus Christ... He just trusts us to maintain it. If you have any questions or comments email webmaster@weatherforyou.com

Copyright © 2016, WeatherForYou.com LLC. All rights reserved.